Tracking 29892 objects as of 21-Nov-2024
HD Live streaming from Space Station
objects crossing your sky now

COSMOS 1803 DEB *

Track COSMOS 1803 DEB * now!
10-day predictions


NORAD ID: 20284
Int'l Code: 1986-094C
Perigee: 1,373.6 km
Apogee: 1,728.5 km
Inclination: 83.2 °
Period: 117.0 minutes
Semi major axis: 7922 km
RCS: 0.015 m2 (small)
Launch date: December 2, 1986
Source: Commonwealth of Independent States (former USSR) (CIS)
Launch site: PLESETSK MISSILE AND SPACE COMPLEX (PKMTR)

Note: This is SATELLITE DEBRIS
Your satellite tracking list
Your tracking list is empty




NASA's NSSDC Master Catalog

Two Line Element Set (TLE):
1 20284U 85094X   24325.31099164  .00000378  00000-0  28333-2 0  9990
2 20284  83.1923  80.6079 0223972  20.3212   8.2183 12.31255367494979
Source of the keplerian elements: AFSPC